Time,TemperatureF,DewpointF,PressureIn,WindDirection,WindDirectionDegrees,WindSpeedMPH,WindSpeedGustMPH,Humidity,HourlyPrecipIn,Conditions,Clouds,dailyrainin,SoftwareType,DateUTC
2013-03-18 00:00:00,28.5,22.8,30.13,NNE,18,1.0,2.0,79,0.00,,,0.00,Wunderground v.1.15,2013-03-18 04:00:00,
2013-03-18 00:05:00,28.6,23.2,30.13,NNE,20,2.0,3.0,80,0.00,,,0.00,Wunderground v.1.15,2013-03-18 04:05:00,
2013-03-18 00:10:00,28.6,23.2,30.12,NNE,30,3.0,5.0,80,0.00,,,0.00,Wunderground v.1.15,2013-03-18 04:10:00,
2013-03-18 00:15:00,28.7,23.3,30.12,NNE,30,4.0,5.0,80,0.00,,,0.00,Wunderground v.1.15,2013-03-18 04:15:00,
2013-03-18 00:20:00,28.7,23.3,30.12,NNE,26,4.0,6.0,80,0.00,,,0.00,Wunderground v.1.15,2013-03-18 04:20:00,
2013-03-18 00:25:00,28.8,23.1,30.11,NNE,13,4.0,6.0,79,0.00,,,0.00,Wunderground v.1.15,2013-03-18 04:25:00,
2013-03-18 00:30:00,28.9,23.2,30.11,NE,37,4.0,4.0,79,0.00,,,0.00,Wunderground v.1.15,2013-03-18 04:30:00,
2013-03-18 00:35:00,29.0,23.3,30.11,NNE,27,4.0,5.0,79,0.00,,,0.00,Wunderground v.1.15,2013-03-18 04:35:00,
2013-03-18 00:40:00,29.1,23.4,30.11,NE,36,4.0,8.0,79,0.00,,,0.00,Wunderground v.1.15,2013-03-18 04:40:00,
2013-03-18 00:50:00,29.1,23.4,30.11,ENE,63,3.0,3.0,79,0.00,,,0.00,Wunderground v.1.15,2013-03-18 04:50:00,
2013-03-18 00:55:00,29.2,23.5,30.10,NNE,32,3.0,6.0,79,0.00,,,0.00,Wunderground v.1.15,2013-03-18 04:55:00,
2013-03-18 01:00:00,29.2,23.5,30.10,NNE,29,3.0,5.0,79,0.00,,,0.00,Wunderground v.1.15,2013-03-18 05:00:00,
2013-03-18 01:05:00,29.3,23.3,30.10,ENE,68,3.0,5.0,78,0.00,,,0.00,Wunderground v.1.15,2013-03-18 05:05:00,
2013-03-18 01:10:00,29.3,23.6,30.09,NNE,22,3.0,3.0,79,0.00,,,0.00,Wunderground v.1.15,2013-03-18 05:10:00,
2013-03-18 01:15:00,29.4,23.4,30.09,NE,42,3.0,8.0,78,0.00,,,0.00,Wunderground v.1.15,2013-03-18 05:15:00,
2013-03-18 01:20:00,29.6,23.6,30.09,East,79,4.0,4.0,78,0.00,,,0.00,Wunderground v.1.15,2013-03-18 05:20:00,
2013-03-18 01:25:00,29.7,23.7,30.09,ENE,74,4.0,4.0,78,0.00,,,0.00,Wunderground v.1.15,2013-03-18 05:25:00,
2013-03-18 01:35:00,29.9,23.6,30.09,NNE,27,3.0,4.0,77,0.00,,,0.00,Wunderground v.1.15,2013-03-18 05:35:00,
2013-03-18 01:40:00,29.9,23.6,30.08,NE,34,4.0,4.0,77,0.00,,,0.00,Wunderground v.1.15,2013-03-18 05:40:00,
2013-03-18 01:45:00,30.0,23.7,30.08,NE,46,3.0,4.0,77,0.00,,,0.00,Wunderground v.1.15,2013-03-18 05:45:00,
2013-03-18 01:50:00,30.1,23.8,30.08,ENE,78,3.0,3.0,77,0.00,,,0.00,Wunderground v.1.15,2013-03-18 05:50:00,
2013-03-18 02:00:00,30.3,24.0,30.07,NE,45,4.0,4.0,77,0.00,,,0.00,Wunderground v.1.15,2013-03-18 06:00:00,
2013-03-18 02:10:00,30.3,24.0,30.07,East,79,2.0,5.0,77,0.00,,,0.00,Wunderground v.1.15,2013-03-18 06:10:00,
2013-03-18 02:15:00,30.4,24.1,30.08,ENE,68,3.0,5.0,77,0.00,,,0.00,Wunderground v.1.15,2013-03-18 06:15:00,
2013-03-18 02:20:00,30.4,24.1,30.08,NNE,25,3.0,4.0,77,0.00,,,0.00,Wunderground v.1.15,2013-03-18 06:20:00,
2013-03-18 02:25:00,30.5,24.1,30.08,ENE,58,3.0,4.0,77,0.00,,,0.00,Wunderground v.1.15,2013-03-18 06:25:00,
2013-03-18 02:35:00,30.6,24.2,30.07,NE,46,3.0,4.0,77,0.00,,,0.00,Wunderground v.1.15,2013-03-18 06:35:00,
2013-03-18 02:40:00,30.5,24.1,30.07,ESE,116,3.0,3.0,77,0.00,,,0.00,Wunderground v.1.15,2013-03-18 06:40:00,
2013-03-18 02:45:00,30.5,24.1,30.07,East,79,3.0,3.0,77,0.00,,,0.00,Wunderground v.1.15,2013-03-18 06:45:00,
2013-03-18 02:55:00,30.6,24.2,30.06,NNE,30,3.0,3.0,77,0.00,,,0.00,Wunderground v.1.15,2013-03-18 06:55:00,
2013-03-18 03:00:00,30.6,24.2,30.07,ENE,65,3.0,3.0,77,0.00,,,0.00,Wunderground v.1.15,2013-03-18 07:00:00,
2013-03-18 03:10:00,30.6,24.2,30.07,NNE,21,2.0,2.0,77,0.00,,,0.00,Wunderground v.1.15,2013-03-18 07:10:00,
2013-03-18 03:15:00,30.7,24.3,30.06,NE,42,3.0,4.0,77,0.00,,,0.00,Wunderground v.1.15,2013-03-18 07:15:00,
2013-03-18 03:20:00,30.7,24.3,30.06,NE,37,3.0,3.0,77,0.00,,,0.00,Wunderground v.1.15,2013-03-18 07:20:00,
2013-03-18 03:25:00,30.8,24.4,30.06,WNW,302,3.0,3.0,77,0.00,,,0.00,Wunderground v.1.15,2013-03-18 07:25:00,
2013-03-18 03:35:00,30.8,24.4,30.06,ENE,73,2.0,2.0,77,0.00,,,0.00,Wunderground v.1.15,2013-03-18 07:35:00,
2013-03-18 03:40:00,30.9,24.5,30.05,NE,34,2.0,2.0,77,0.00,,,0.00,Wunderground v.1.15,2013-03-18 07:40:00,
2013-03-18 03:45:00,30.9,24.5,30.05,East,82,2.0,2.0,77,0.00,,,0.00,Wunderground v.1.15,2013-03-18 07:45:00,
2013-03-18 03:50:00,31.0,24.6,30.05,ENE,58,2.0,3.0,77,0.00,,,0.00,Wunderground v.1.15,2013-03-18 07:50:00,
2013-03-18 03:55:00,31.0,24.6,30.04,NE,46,3.0,3.0,77,0.00,,,0.00,Wunderground v.1.15,2013-03-18 07:55:00,
2013-03-18 04:00:00,31.1,24.7,30.03,ESE,102,2.0,2.0,77,0.00,,,0.00,Wunderground v.1.15,2013-03-18 08:00:00,
2013-03-18 04:10:00,31.2,24.8,30.03,NNE,29,2.0,2.0,77,0.00,,,0.00,Wunderground v.1.15,2013-03-18 08:10:00,
2013-03-18 04:14:00,31.2,24.8,30.02,East,88,2.0,3.0,77,0.00,,,0.00,Wunderground v.1.15,2013-03-18 08:14:00,
2013-03-18 04:20:00,31.2,24.8,30.02,North,8,2.0,2.0,77,0.00,,,0.00,Wunderground v.1.15,2013-03-18 08:20:00,
2013-03-18 04:25:00,31.2,24.8,30.02,ESE,103,2.0,2.0,77,0.00,,,0.00,Wunderground v.1.15,2013-03-18 08:25:00,
2013-03-18 04:30:00,31.3,25.2,30.01,SE,132,3.0,3.0,78,0.00,,,0.00,Wunderground v.1.15,2013-03-18 08:30:00,
2013-03-18 04:35:00,31.2,25.4,30.01,ESE,117,3.0,3.0,79,0.00,,,0.00,Wunderground v.1.15,2013-03-18 08:35:00,
2013-03-18 04:40:00,31.2,25.7,30.00,SSE,166,2.0,2.0,80,0.00,,,0.00,Wunderground v.1.15,2013-03-18 08:40:00,
2013-03-18 04:45:00,31.1,26.0,30.00,SE,132,2.0,2.0,81,0.00,,,0.00,Wunderground v.1.15,2013-03-18 08:45:00,
2013-03-18 04:50:00,31.0,26.1,30.00,ESE,108,1.0,1.0,82,0.00,,,0.00,Wunderground v.1.15,2013-03-18 08:50:00,
2013-03-18 04:55:00,31.0,26.4,29.99,North,9,2.0,2.0,83,0.00,,,0.00,Wunderground v.1.15,2013-03-18 08:55:00,
2013-03-18 05:05:00,31.1,26.8,29.99,ESE,114,2.0,2.0,84,0.00,,,0.00,Wunderground v.1.15,2013-03-18 09:05:00,
2013-03-18 05:10:00,31.1,26.8,29.99,NE,56,1.0,1.0,84,0.00,,,0.00,Wunderground v.1.15,2013-03-18 09:10:00,
2013-03-18 05:15:00,31.2,26.9,29.98,SE,144,2.0,2.0,84,0.00,,,0.00,Wunderground v.1.15,2013-03-18 09:15:00,
2013-03-18 05:25:00,31.3,27.3,29.98,ESE,111,2.0,3.0,85,0.00,,,0.00,Wunderground v.1.15,2013-03-18 09:25:00,
2013-03-18 05:30:00,31.4,27.7,29.97,ENE,77,3.0,3.0,86,0.00,,,0.00,Wunderground v.1.15,2013-03-18 09:30:00,
2013-03-18 05:40:00,31.6,28.2,29.97,East,96,3.0,6.0,87,0.00,,,0.00,Wunderground v.1.15,2013-03-18 09:40:00,
2013-03-18 05:45:00,31.6,28.2,29.97,NE,48,3.0,7.0,87,0.00,,,0.00,Wunderground v.1.15,2013-03-18 09:45:00,
2013-03-18 05:50:00,31.7,28.6,29.96,North,353,3.0,3.0,88,0.00,,,0.00,Wunderground v.1.15,2013-03-18 09:50:00,
2013-03-18 05:55:00,31.8,28.7,29.96,WSW,239,3.0,3.0,88,0.00,,,0.00,Wunderground v.1.15,2013-03-18 09:55:00,
2013-03-18 06:00:00,31.9,29.0,29.96,SE,129,3.0,3.0,89,0.00,,,0.00,Wunderground v.1.15,2013-03-18 10:00:00,
2013-03-18 06:09:00,32.1,29.2,29.96,SE,129,2.0,4.0,89,0.00,,,0.01,Wunderground v.1.15,2013-03-18 10:09:00,
2013-03-18 06:15:00,32.2,29.6,29.96,SSW,196,2.0,4.0,90,0.00,,,0.01,Wunderground v.1.15,2013-03-18 10:15:00,
2013-03-18 06:20:00,32.3,29.7,29.96,SE,125,2.0,2.0,90,0.05,,,0.02,Wunderground v.1.15,2013-03-18 10:20:00,
2013-03-18 06:25:00,32.4,29.8,29.96,NNE,26,2.0,2.0,90,0.08,,,0.03,Wunderground v.1.15,2013-03-18 10:25:00,
2013-03-18 06:30:00,32.5,30.2,29.95,ESE,113,2.0,2.0,91,0.08,,,0.03,Wunderground v.1.15,2013-03-18 10:30:00,
2013-03-18 06:35:00,32.7,30.4,29.94,ESE,122,2.0,3.0,91,0.08,,,0.04,Wunderground v.1.15,2013-03-18 10:35:00,
2013-03-18 06:45:00,32.9,30.8,29.92,ESE,119,3.0,7.0,92,0.07,,,0.05,Wunderground v.1.15,2013-03-18 10:45:00,
2013-03-18 06:50:00,32.9,30.8,29.92,North,357,3.0,3.0,92,0.04,,,0.05,Wunderground v.1.15,2013-03-18 10:50:00,
2013-03-18 06:55:00,33.0,30.9,29.92,ESE,117,3.0,3.0,92,0.00,,,0.05,Wunderground v.1.15,2013-03-18 10:55:00,
2013-03-18 07:00:00,33.1,31.3,29.92,East,87,3.0,3.0,93,0.00,,,0.05,Wunderground v.1.15,2013-03-18 11:00:00,
2013-03-18 07:10:00,33.2,31.4,29.93,NE,54,2.0,3.0,93,0.00,,,0.05,Wunderground v.1.15,2013-03-18 11:10:00,
2013-03-18 07:15:00,33.3,31.5,29.93,SE,138,2.0,3.0,93,0.00,,,0.05,Wunderground v.1.15,2013-03-18 11:15:00,
2013-03-18 07:25:00,33.5,31.7,29.93,ESE,121,2.0,3.0,93,0.00,,,0.05,Wunderground v.1.15,2013-03-18 11:25:00,
2013-03-18 07:30:00,33.5,31.7,29.93,SE,141,1.0,1.0,93,0.00,,,0.05,Wunderground v.1.15,2013-03-18 11:30:00,
2013-03-18 07:35:00,33.6,31.8,29.92,SE,124,2.0,3.0,93,0.00,,,0.05,Wunderground v.1.15,2013-03-18 11:35:00,
2013-03-18 07:40:00,33.6,31.8,29.91,ENE,65,2.0,3.0,93,0.00,,,0.05,Wunderground v.1.15,2013-03-18 11:40:00,
2013-03-18 07:45:00,33.6,31.8,29.90,East,84,3.0,4.0,93,0.00,,,0.05,Wunderground v.1.15,2013-03-18 11:45:00,
2013-03-18 07:50:00,33.6,31.8,29.90,East,92,3.0,3.0,93,0.00,,,0.05,Wunderground v.1.15,2013-03-18 11:50:00,
2013-03-18 07:55:00,33.7,32.2,29.89,NE,43,3.0,5.0,94,0.00,,,0.05,Wunderground v.1.15,2013-03-18 11:55:00,
2013-03-18 08:05:00,33.7,32.2,29.89,SW,214,3.0,5.0,94,0.00,,,0.05,Wunderground v.1.15,2013-03-18 12:05:00,
2013-03-18 08:10:00,33.8,32.3,29.89,NNE,20,3.0,3.0,94,0.00,,,0.05,Wunderground v.1.15,2013-03-18 12:10:00,
2013-03-18 08:15:00,33.8,32.3,29.88,East,96,2.0,3.0,94,0.00,,,0.05,Wunderground v.1.15,2013-03-18 12:15:00,
2013-03-18 08:20:00,33.9,32.4,29.88,East,86,3.0,3.0,94,0.00,,,0.05,Wunderground v.1.15,2013-03-18 12:20:00,
2013-03-18 08:25:00,34.0,32.5,29.87,East,85,3.0,3.0,94,0.00,,,0.05,Wunderground v.1.15,2013-03-18 12:25:00,
2013-03-18 08:30:00,34.0,32.5,29.87,West,260,3.0,4.0,94,0.00,,,0.05,Wunderground v.1.15,2013-03-18 12:30:00,
2013-03-18 08:35:00,34.1,32.6,29.87,ENE,76,4.0,4.0,94,0.00,,,0.05,Wunderground v.1.15,2013-03-18 12:35:00,
2013-03-18 08:40:00,34.1,32.6,29.87,ESE,106,4.0,4.0,94,0.00,,,0.05,Wunderground v.1.15,2013-03-18 12:40:00,
2013-03-18 08:50:00,34.2,32.7,29.86,SE,143,3.0,3.0,94,0.00,,,0.05,Wunderground v.1.15,2013-03-18 12:50:00,
2013-03-18 08:55:00,34.3,32.8,29.86,SSE,156,4.0,9.0,94,0.00,,,0.05,Wunderground v.1.15,2013-03-18 12:55:00,
2013-03-18 09:00:00,34.3,32.8,29.86,North,9,4.0,4.0,94,0.00,,,0.05,Wunderground v.1.15,2013-03-18 13:00:00,
2013-03-18 09:10:00,34.4,32.9,29.87,SE,146,3.0,6.0,94,0.32,,,0.08,Wunderground v.1.15,2013-03-18 13:10:00,
2013-03-18 09:15:00,34.4,32.9,29.86,NW,320,3.0,6.0,94,0.26,,,0.10,Wunderground v.1.15,2013-03-18 13:15:00,
2013-03-18 09:25:00,34.4,32.9,29.85,East,92,3.0,3.0,94,0.26,,,0.15,Wunderground v.1.15,2013-03-18 13:25:00,
2013-03-18 09:35:00,34.4,32.9,29.85,SSE,156,2.0,4.0,94,0.24,,,0.19,Wunderground v.1.15,2013-03-18 13:35:00,
2013-03-18 09:40:00,34.4,32.9,29.85,SE,130,3.0,3.0,94,0.29,,,0.21,Wunderground v.1.15,2013-03-18 13:40:00,
2013-03-18 09:45:00,34.4,32.9,29.84,ESE,119,4.0,5.0,94,0.27,,,0.23,Wunderground v.1.15,2013-03-18 13:45:00,
2013-03-18 09:50:00,34.4,32.9,29.84,SE,146,4.0,4.0,94,0.27,,,0.25,Wunderground v.1.15,2013-03-18 13:50:00,
2013-03-18 09:55:00,34.4,32.9,29.84,SE,126,3.0,4.0,94,0.28,,,0.28,Wunderground v.1.15,2013-03-18 13:55:00,
2013-03-18 10:00:00,34.4,32.9,29.84,North,2,3.0,4.0,94,0.24,,,0.30,Wunderground v.1.15,2013-03-18 14:00:00,
2013-03-18 10:10:00,34.4,32.9,29.82,NE,43,3.0,3.0,94,0.17,,,0.33,Wunderground v.1.15,2013-03-18 14:10:00,
2013-03-18 10:15:00,34.4,32.9,29.82,SE,139,4.0,7.0,94,0.29,,,0.36,Wunderground v.1.15,2013-03-18 14:15:00,
2013-03-18 10:20:00,34.4,32.9,29.81,ESE,113,4.0,4.0,94,0.24,,,0.38,Wunderground v.1.15,2013-03-18 14:20:00,
2013-03-18 10:25:00,34.4,32.9,29.82,SE,141,3.0,4.0,94,0.16,,,0.39,Wunderground v.1.15,2013-03-18 14:25:00,
2013-03-18 10:30:00,34.4,32.9,29.82,ESE,106,3.0,4.0,94,0.11,,,0.40,Wunderground v.1.15,2013-03-18 14:30:00,
2013-03-18 10:35:00,34.5,33.0,29.81,SE,146,3.0,4.0,94,0.12,,,0.41,Wunderground v.1.15,2013-03-18 14:35:00,
2013-03-18 10:40:00,34.5,33.0,29.81,NNW,331,3.0,3.0,94,0.40,,,0.44,Wunderground v.1.15,2013-03-18 14:40:00,
2013-03-18 10:50:00,34.5,33.0,29.80,ESE,121,2.0,6.0,94,0.14,,,0.46,Wunderground v.1.15,2013-03-18 14:50:00,
2013-03-18 10:55:00,34.5,33.2,29.80,East,89,3.0,6.0,95,0.10,,,0.47,Wunderground v.1.15,2013-03-18 14:55:00,
2013-03-18 11:00:00,34.6,33.3,29.80,SW,229,4.0,4.0,95,0.07,,,0.47,Wunderground v.1.15,2013-03-18 15:00:00,
2013-03-18 11:10:00,34.7,33.4,29.80,ESE,115,2.0,2.0,95,0.00,,,0.47,Wunderground v.1.15,2013-03-18 15:10:00,
2013-03-18 11:15:00,34.7,33.4,29.80,ESE,105,3.0,3.0,95,0.00,,,0.47,Wunderground v.1.15,2013-03-18 15:15:00,
2013-03-18 11:20:00,34.8,33.5,29.81,ESE,112,3.0,4.0,95,0.00,,,0.47,Wunderground v.1.15,2013-03-18 15:20:00,
2013-03-18 11:30:00,34.9,33.6,29.81,SW,232,2.0,2.0,95,0.00,,,0.47,Wunderground v.1.15,2013-03-18 15:30:00,
2013-03-18 11:35:00,35.0,33.7,29.81,ENE,76,2.0,3.0,95,0.00,,,0.47,Wunderground v.1.15,2013-03-18 15:35:00,
2013-03-18 11:40:00,35.1,33.8,29.81,ENE,68,2.0,8.0,95,0.00,,,0.47,Wunderground v.1.15,2013-03-18 15:40:00,
2013-03-18 11:45:00,35.1,33.8,29.80,ESE,113,3.0,8.0,95,0.00,,,0.47,Wunderground v.1.15,2013-03-18 15:45:00,
2013-03-18 11:50:00,35.1,33.8,29.80,SSW,207,3.0,3.0,95,0.00,,,0.47,Wunderground v.1.15,2013-03-18 15:50:00,
2013-03-18 11:55:00,35.2,33.9,29.80,East,79,2.0,3.0,95,0.00,,,0.47,Wunderground v.1.15,2013-03-18 15:55:00,
2013-03-18 12:00:00,35.2,33.9,29.80,SSE,165,2.0,2.0,95,0.00,,,0.47,Wunderground v.1.15,2013-03-18 16:00:00,
2013-03-18 12:10:00,35.2,33.9,29.80,SW,231,3.0,3.0,95,0.00,,,0.48,Wunderground v.1.15,2013-03-18 16:10:00,
2013-03-18 12:15:00,35.2,33.9,29.79,SW,221,3.0,4.0,95,0.00,,,0.48,Wunderground v.1.15,2013-03-18 16:15:00,
2013-03-18 12:20:00,35.2,33.9,29.79,WSW,241,2.0,4.0,95,0.00,,,0.48,Wunderground v.1.15,2013-03-18 16:20:00,
2013-03-18 12:25:00,35.3,34.0,29.79,WSW,238,2.0,4.0,95,0.00,,,0.48,Wunderground v.1.15,2013-03-18 16:25:00,
2013-03-18 12:30:00,35.3,34.0,29.78,East,81,1.0,1.0,95,0.00,,,0.48,Wunderground v.1.15,2013-03-18 16:30:00,
2013-03-18 12:35:00,35.3,34.0,29.78,East,81,2.0,2.0,95,0.00,,,0.48,Wunderground v.1.15,2013-03-18 16:35:00,
2013-03-18 12:40:00,35.4,34.1,29.78,SE,139,2.0,2.0,95,0.00,,,0.48,Wunderground v.1.15,2013-03-18 16:40:00,
2013-03-18 12:50:00,35.5,34.2,29.78,SSW,211,2.0,4.0,95,0.00,,,0.48,Wunderground v.1.15,2013-03-18 16:50:00,
2013-03-18 12:55:00,35.7,34.4,29.77,SE,133,2.0,4.0,95,0.00,,,0.48,Wunderground v.1.15,2013-03-18 16:55:00,
2013-03-18 13:00:00,35.8,34.5,29.77,SSE,153,2.0,2.0,95,0.00,,,0.48,Wunderground v.1.15,2013-03-18 17:00:00,
2013-03-18 13:10:00,36.0,34.7,29.76,ESE,115,2.0,2.0,95,0.00,,,0.48,Wunderground v.1.15,2013-03-18 17:10:00,
2013-03-18 13:15:00,36.1,34.8,29.76,WSW,239,2.0,2.0,95,0.00,,,0.48,Wunderground v.1.15,2013-03-18 17:15:00,
2013-03-18 13:20:00,36.2,34.9,29.76,SE,145,2.0,4.0,95,0.00,,,0.48,Wunderground v.1.15,2013-03-18 17:20:00,
2013-03-18 13:29:00,36.5,35.2,29.76,SE,134,2.0,4.0,95,0.00,,,0.48,Wunderground v.1.15,2013-03-18 17:29:00,
2013-03-18 13:35:00,36.6,35.3,29.76,East,100,2.0,4.0,95,0.00,,,0.48,Wunderground v.1.15,2013-03-18 17:35:00,
2013-03-18 13:40:00,36.7,35.4,29.76,ENE,78,2.0,4.0,95,0.00,,,0.48,Wunderground v.1.15,2013-03-18 17:40:00,
2013-03-18 13:45:00,36.8,35.5,29.75,SSW,203,2.0,4.0,95,0.00,,,0.48,Wunderground v.1.15,2013-03-18 17:45:00,
2013-03-18 13:50:00,36.9,35.6,29.75,WSW,239,2.0,3.0,95,0.00,,,0.48,Wunderground v.1.15,2013-03-18 17:50:00,
2013-03-18 13:55:00,37.1,36.1,29.74,WSW,242,2.0,6.0,96,0.00,,,0.48,Wunderground v.1.15,2013-03-18 17:55:00,
2013-03-18 14:04:00,37.3,36.3,29.73,ESE,103,1.0,2.0,96,0.00,,,0.48,Wunderground v.1.15,2013-03-18 18:04:00,
2013-03-18 14:10:00,37.5,36.5,29.73,East,84,1.0,1.0,96,0.00,,,0.48,Wunderground v.1.15,2013-03-18 18:10:00,
2013-03-18 14:15:00,37.6,36.6,29.73,WSW,239,1.0,1.0,96,0.00,,,0.48,Wunderground v.1.15,2013-03-18 18:15:00,
2013-03-18 14:20:00,37.8,36.8,29.72,WSW,239,2.0,2.0,96,0.00,,,0.48,Wunderground v.1.15,2013-03-18 18:20:00,
2013-03-18 14:25:00,37.9,36.9,29.72,SSW,210,2.0,2.0,96,0.00,,,0.48,Wunderground v.1.15,2013-03-18 18:25:00,
2013-03-18 14:30:00,38.1,37.1,29.72,SSW,197,2.0,2.0,96,0.00,,,0.48,Wunderground v.1.15,2013-03-18 18:30:00,
2013-03-18 14:35:00,38.3,37.3,29.72,SSE,157,2.0,4.0,96,0.00,,,0.48,Wunderground v.1.15,2013-03-18 18:35:00,
2013-03-18 14:40:00,38.4,37.4,29.71,South,188,2.0,4.0,96,0.00,,,0.49,Wunderground v.1.15,2013-03-18 18:40:00,
2013-03-18 14:50:00,38.6,37.6,29.71,SSW,200,2.0,2.0,96,0.00,,,0.49,Wunderground v.1.15,2013-03-18 18:50:00,
2013-03-18 14:55:00,38.7,37.7,29.70,SSE,148,2.0,4.0,96,0.00,,,0.49,Wunderground v.1.15,2013-03-18 18:55:00,
2013-03-18 15:00:00,38.9,37.9,29.69,SSW,198,3.0,3.0,96,0.00,,,0.49,Wunderground v.1.15,2013-03-18 19:00:00,
2013-03-18 15:10:00,39.2,38.2,29.69,SSE,166,2.0,6.0,96,0.00,,,0.50,Wunderground v.1.15,2013-03-18 19:10:00,
2013-03-18 15:15:00,39.3,38.3,29.69,SW,217,2.0,6.0,96,0.00,,,0.50,Wunderground v.1.15,2013-03-18 19:15:00,
2013-03-18 15:25:00,39.5,38.5,29.68,SSW,193,4.0,4.0,96,0.00,,,0.50,Wunderground v.1.15,2013-03-18 19:25:00,
2013-03-18 15:30:00,39.6,38.6,29.68,South,174,4.0,4.0,96,0.00,,,0.50,Wunderground v.1.15,2013-03-18 19:30:00,
2013-03-18 15:35:00,39.7,38.7,29.67,SW,225,3.0,4.0,96,0.00,,,0.50,Wunderground v.1.15,2013-03-18 19:35:00,
2013-03-18 15:40:00,39.7,38.7,29.67,South,190,3.0,3.0,96,0.00,,,0.50,Wunderground v.1.15,2013-03-18 19:40:00,
2013-03-18 15:45:00,39.9,38.9,29.66,SSW,196,3.0,3.0,96,0.00,,,0.50,Wunderground v.1.15,2013-03-18 19:45:00,
2013-03-18 15:50:00,40.1,39.1,29.66,SSW,194,3.0,3.0,96,0.00,,,0.50,Wunderground v.1.15,2013-03-18 19:50:00,
2013-03-18 15:55:00,40.3,39.3,29.65,SSW,205,3.0,5.0,96,0.00,,,0.50,Wunderground v.1.15,2013-03-18 19:55:00,
2013-03-18 16:05:00,40.6,39.5,29.65,SSW,200,3.0,4.0,96,0.00,,,0.50,Wunderground v.1.15,2013-03-18 20:05:00,
2013-03-18 16:10:00,40.7,39.6,29.65,South,186,4.0,4.0,96,0.00,,,0.50,Wunderground v.1.15,2013-03-18 20:10:00,
2013-03-18 16:15:00,40.9,39.8,29.65,ESE,116,4.0,4.0,96,0.00,,,0.50,Wunderground v.1.15,2013-03-18 20:15:00,
2013-03-18 16:20:00,41.0,40.2,29.65,South,176,4.0,4.0,97,0.00,,,0.50,Wunderground v.1.15,2013-03-18 20:20:00,
2013-03-18 16:25:00,41.1,40.3,29.65,SSW,207,4.0,6.0,97,0.00,,,0.51,Wunderground v.1.15,2013-03-18 20:25:00,
2013-03-18 16:30:00,41.3,40.5,29.65,South,184,4.0,4.0,97,0.00,,,0.51,Wunderground v.1.15,2013-03-18 20:30:00,
2013-03-18 16:40:00,41.7,40.9,29.64,SW,225,5.0,6.0,97,0.00,,,0.51,Wunderground v.1.15,2013-03-18 20:40:00,
2013-03-18 16:45:00,41.9,41.1,29.64,SSW,200,5.0,6.0,97,0.00,,,0.51,Wunderground v.1.15,2013-03-18 20:45:00,
2013-03-18 16:50:00,42.1,41.3,29.65,SSW,193,5.0,6.0,97,0.00,,,0.52,Wunderground v.1.15,2013-03-18 20:50:00,
2013-03-18 16:55:00,42.3,41.5,29.64,SSE,148,6.0,6.0,97,0.00,,,0.52,Wunderground v.1.15,2013-03-18 20:55:00,
2013-03-18 17:00:00,42.6,41.8,29.64,SE,143,6.0,6.0,97,0.00,,,0.52,Wunderground v.1.15,2013-03-18 21:00:00,
2013-03-18 17:10:00,43.0,42.2,29.63,South,178,5.0,5.0,97,0.00,,,0.52,Wunderground v.1.15,2013-03-18 21:10:00,
2013-03-18 17:20:00,43.3,42.5,29.63,SSE,161,6.0,6.0,97,0.00,,,0.52,Wunderground v.1.15,2013-03-18 21:20:00,
2013-03-18 17:25:00,43.5,42.7,29.64,South,186,6.0,7.0,97,0.00,,,0.52,Wunderground v.1.15,2013-03-18 21:25:00,
2013-03-18 17:30:00,43.6,42.8,29.64,SSW,205,6.0,8.0,97,0.00,,,0.52,Wunderground v.1.15,2013-03-18 21:30:00,
2013-03-18 17:35:00,43.6,42.8,29.64,SE,143,5.0,8.0,97,0.00,,,0.53,Wunderground v.1.15,2013-03-18 21:35:00,
2013-03-18 17:40:00,43.8,43.0,29.64,South,189,5.0,5.0,97,0.00,,,0.53,Wunderground v.1.15,2013-03-18 21:40:00,
2013-03-18 17:45:00,43.9,43.1,29.63,SSW,208,5.0,6.0,97,0.00,,,0.53,Wunderground v.1.15,2013-03-18 21:45:00,
2013-03-18 17:50:00,44.0,43.2,29.63,SSE,156,5.0,5.0,97,0.00,,,0.53,Wunderground v.1.15,2013-03-18 21:50:00,
2013-03-18 18:00:00,44.2,43.4,29.63,SSE,151,4.0,6.0,97,0.00,,,0.53,Wunderground v.1.15,2013-03-18 22:00:00,
2013-03-18 18:10:00,44.4,43.6,29.63,South,179,5.0,5.0,97,0.00,,,0.53,Wunderground v.1.15,2013-03-18 22:10:00,
2013-03-18 18:15:00,44.4,43.6,29.62,SSE,149,5.0,5.0,97,0.00,,,0.53,Wunderground v.1.15,2013-03-18 22:15:00,
2013-03-18 18:20:00,44.4,43.6,29.62,South,171,4.0,4.0,97,0.00,,,0.53,Wunderground v.1.15,2013-03-18 22:20:00,
2013-03-18 18:25:00,44.5,43.7,29.62,SSE,159,5.0,5.0,97,0.00,,,0.53,Wunderground v.1.15,2013-03-18 22:25:00,
2013-03-18 18:30:00,44.5,43.7,29.62,SSE,155,5.0,5.0,97,0.00,,,0.53,Wunderground v.1.15,2013-03-18 22:30:00,
2013-03-18 18:39:00,44.7,43.9,29.62,SW,223,6.0,6.0,97,0.00,,,0.53,Wunderground v.1.15,2013-03-18 22:39:00,
2013-03-18 18:45:00,44.7,43.9,29.62,SSE,163,6.0,6.0,97,0.00,,,0.53,Wunderground v.1.15,2013-03-18 22:45:00,
2013-03-18 18:50:00,44.8,44.0,29.61,South,174,5.0,5.0,97,0.00,,,0.53,Wunderground v.1.15,2013-03-18 22:50:00,
2013-03-18 18:55:00,44.9,44.1,29.61,ESE,119,6.0,6.0,97,0.00,,,0.53,Wunderground v.1.15,2013-03-18 22:55:00,
2013-03-18 19:00:00,44.9,44.1,29.61,SE,132,5.0,8.0,97,0.00,,,0.53,Wunderground v.1.15,2013-03-18 23:00:00,
2013-03-18 19:10:00,45.1,44.3,29.62,SSE,166,6.0,6.0,97,0.00,,,0.53,Wunderground v.1.15,2013-03-18 23:10:00,
2013-03-18 19:20:00,45.2,44.4,29.62,SSW,200,5.0,6.0,97,0.00,,,0.53,Wunderground v.1.15,2013-03-18 23:20:00,
2013-03-18 19:25:00,45.3,44.5,29.62,South,186,5.0,6.0,97,0.00,,,0.53,Wunderground v.1.15,2013-03-18 23:25:00,
2013-03-18 19:30:00,45.3,44.5,29.61,South,187,5.0,7.0,97,0.00,,,0.53,Wunderground v.1.15,2013-03-18 23:30:00,
2013-03-18 19:35:00,45.4,44.6,29.61,South,179,5.0,7.0,97,0.00,,,0.54,Wunderground v.1.15,2013-03-18 23:35:00,
2013-03-18 19:40:00,45.5,44.7,29.61,SSW,208,6.0,6.0,97,0.00,,,0.54,Wunderground v.1.15,2013-03-18 23:40:00,
2013-03-18 19:50:00,45.7,44.9,29.61,SE,136,5.0,5.0,97,0.00,,,0.54,Wunderground v.1.15,2013-03-18 23:50:00,
2013-03-18 20:00:00,45.9,45.1,29.62,SSE,153,4.0,7.0,97,0.00,,,0.54,Wunderground v.1.15,2013-03-19 00:00:00,
2013-03-18 20:10:00,46.1,45.3,29.62,South,187,5.0,5.0,97,0.00,,,0.54,Wunderground v.1.15,2013-03-19 00:10:00,
2013-03-18 20:15:00,46.1,45.3,29.62,South,190,4.0,5.0,97,0.00,,,0.54,Wunderground v.1.15,2013-03-19 00:15:00,
2013-03-18 20:20:00,46.1,45.3,29.63,South,187,4.0,5.0,97,0.00,,,0.55,Wunderground v.1.15,2013-03-19 00:20:00,
2013-03-18 20:25:00,46.0,45.2,29.63,SSW,198,4.0,5.0,97,0.00,,,0.55,Wunderground v.1.15,2013-03-19 00:25:00,
2013-03-18 20:35:00,46.1,45.3,29.64,SW,217,3.0,4.0,97,0.05,,,0.56,Wunderground v.1.15,2013-03-19 00:35:00,
2013-03-18 20:40:00,46.3,45.5,29.64,South,177,4.0,5.0,97,0.05,,,0.56,Wunderground v.1.15,2013-03-19 00:40:00,
2013-03-18 20:45:00,46.4,45.6,29.64,South,184,4.0,5.0,97,0.04,,,0.57,Wunderground v.1.15,2013-03-19 00:45:00,
2013-03-18 20:50:00,46.5,45.7,29.63,SSW,198,4.0,4.0,97,0.04,,,0.57,Wunderground v.1.15,2013-03-19 00:50:00,
2013-03-18 20:55:00,46.6,45.8,29.63,South,180,5.0,5.0,97,0.04,,,0.57,Wunderground v.1.15,2013-03-19 00:55:00,
2013-03-18 21:00:00,46.5,45.7,29.64,SSW,195,4.0,4.0,97,0.04,,,0.57,Wunderground v.1.15,2013-03-19 01:00:00,
2013-03-18 21:10:00,46.6,45.8,29.64,WSW,256,3.0,3.0,97,0.00,,,0.58,Wunderground v.1.15,2013-03-19 01:10:00,
2013-03-18 21:15:00,46.8,46.0,29.64,SSW,203,4.0,5.0,97,0.00,,,0.58,Wunderground v.1.15,2013-03-19 01:15:00,
2013-03-18 21:20:00,46.9,46.1,29.64,SSW,197,5.0,6.0,97,0.00,,,0.58,Wunderground v.1.15,2013-03-19 01:20:00,
2013-03-18 21:25:00,46.8,46.0,29.64,SSW,208,5.0,6.0,97,0.00,,,0.58,Wunderground v.1.15,2013-03-19 01:25:00,
2013-03-18 21:30:00,46.8,46.0,29.64,SSW,207,4.0,4.0,97,0.00,,,0.58,Wunderground v.1.15,2013-03-19 01:30:00,
2013-03-18 21:40:00,46.9,46.1,29.64,SSW,204,5.0,5.0,97,0.00,,,0.59,Wunderground v.1.15,2013-03-19 01:40:00,
2013-03-18 21:45:00,47.0,46.2,29.64,SSW,207,5.0,5.0,97,0.00,,,0.59,Wunderground v.1.15,2013-03-19 01:45:00,
2013-03-18 21:50:00,47.1,46.3,29.64,SSW,202,4.0,4.0,97,0.00,,,0.59,Wunderground v.1.15,2013-03-19 01:50:00,
2013-03-18 22:00:00,47.1,46.3,29.64,SSW,203,3.0,3.0,97,0.00,,,0.59,Wunderground v.1.15,2013-03-19 02:00:00,
2013-03-18 22:10:00,47.2,46.7,29.64,SSW,205,3.0,4.0,98,0.00,,,0.59,Wunderground v.1.15,2013-03-19 02:10:00,
2013-03-18 22:15:00,47.3,46.8,29.64,SW,225,2.0,4.0,98,0.00,,,0.59,Wunderground v.1.15,2013-03-19 02:15:00,
2013-03-18 22:20:00,47.4,46.9,29.64,SSW,208,3.0,3.0,98,0.00,,,0.59,Wunderground v.1.15,2013-03-19 02:20:00,
2013-03-18 22:25:00,47.6,47.1,29.64,SSW,198,4.0,5.0,98,0.00,,,0.59,Wunderground v.1.15,2013-03-19 02:25:00,
2013-03-18 22:30:00,47.6,47.1,29.64,SW,214,4.0,4.0,98,0.00,,,0.59,Wunderground v.1.15,2013-03-19 02:30:00,
2013-03-18 22:35:00,47.6,46.8,29.64,South,176,4.0,4.0,97,0.00,,,0.59,Wunderground v.1.15,2013-03-19 02:35:00,
2013-03-18 22:45:00,47.6,46.8,29.65,South,174,2.0,3.0,97,0.00,,,0.59,Wunderground v.1.15,2013-03-19 02:45:00,
2013-03-18 22:55:00,47.5,46.7,29.65,South,174,1.0,2.0,97,0.00,,,0.59,Wunderground v.1.15,2013-03-19 02:55:00,
2013-03-18 23:00:00,47.5,46.7,29.66,South,180,2.0,4.0,97,0.00,,,0.59,Wunderground v.1.15,2013-03-19 03:00:00,
2013-03-18 23:10:00,46.9,45.5,29.67,WSW,252,5.0,5.0,95,0.00,,,0.59,Wunderground v.1.15,2013-03-19 03:10:00,
2013-03-18 23:20:00,46.1,44.7,29.68,West,259,3.0,3.0,95,0.00,,,0.59,Wunderground v.1.15,2013-03-19 03:20:00,
2013-03-18 23:30:00,45.5,43.9,29.68,SW,229,4.0,6.0,94,0.00,,,0.59,Wunderground v.1.15,2013-03-19 03:30:00,
2013-03-18 23:35:00,45.3,44.0,29.68,WNW,290,4.0,6.0,95,0.00,,,0.59,Wunderground v.1.15,2013-03-19 03:35:00,
2013-03-18 23:40:00,45.1,43.8,29.69,WSW,252,4.0,6.0,95,0.00,,,0.59,Wunderground v.1.15,2013-03-19 03:40:00,
2013-03-18 23:45:00,45.0,43.7,29.69,SSW,205,4.0,6.0,95,0.00,,,0.59,Wunderground v.1.15,2013-03-19 03:45:00,
2013-03-18 23:55:00,44.6,43.0,29.69,SW,225,5.0,7.0,94,0.00,,,0.59,Wunderground v.1.15,2013-03-19 03:55:00,